{"data":{"norad_id":62446,"intl_designator":"2024-251Q","name":"STARLINK-32726","alt_names":[],"object_type":"PAYLOAD","status":"ACTIVE","operator":null,"country":"US","launch_date":"2024-12-29","launch_site_code":"AFWTR","launch_vehicle":null,"mission":null,"orbit_class":"UNKNOWN","rcs_meters":null,"size_class":null,"mass_kg":null,"dimensions":null,"purposes":["comms"],"wikipedia_slug":null,"has_3d_model":false,"image_url":null,"decayed_at":null,"tle_current":{"epoch":"2026-09-21T20:26:03.516576Z","epoch_age_seconds":57808,"freshness":"FRESH","line1":"1 62446U 24251Q   26264.85142959  .00010277  00000+0  31488-3 0  9992","line2":"2 62446  53.1609 141.1717 0002401  96.4781 263.6495 15.34400109 97718","mean_motion":15.34400109,"eccentricity":0.0002401,"inclination_deg":53.1609,"raan_deg":141.1717,"arg_perigee_deg":96.4781,"mean_anomaly_deg":263.6495,"bstar":0.00031488,"rev_number":9771,"period_min":93.847751414621,"perigee_km":461.06043057227,"apogee_km":464.34540190004,"semimajor_km":6840.8399162362,"source":"CELESTRAK","updated_at":"2026-09-22T09:00:49.582801Z"}}}